W0TVS Weather Reports


Display with metric or nautical units.
time (UTC)temp
F
wind
direction
speed
MPH
gust
MPH
rain 1hr
in
rain 24hr
in
rain mn
in
humidity
%
barometer
mb
20210923034313 56 349 0.0 0.0 0.00 0.00 0.00 58 1020.5
20210923033317 56 349 0.0 0.0 0.00 0.00 0.00 59 1020.6
20210923032319 56 349 0.0 0.0 0.00 0.00 0.00 59 1020.8
20210923031322 56 349 0.0 0.0 0.00 0.00 0.00 59 1020.9
20210923030320 56 349 0.0 0.0 0.00 0.00 0.00 59 1021.0
20210923025318 57 349 0.0 0.0 0.00 0.00 0.00 58 1020.9
20210923024320 57 349 0.0 0.0 0.00 0.00 0.00 59 1020.9
20210923022314 57 349 0.0 0.0 0.00 0.00 0.00 60 1020.9
20210923021332 56 349 0.0 0.0 0.00 0.00 0.00 62 1021.0
20210923020315 56 349 0.0 0.0 0.00 0.00 0.00 62 1021.1
20210923015332 57 349 0.0 0.0 0.00 0.00 0.00 61 1021.0
20210923014330 58 349 0.0 0.0 0.00 0.00 0.00 59 1021.0
20210923013313 58 349 0.0 0.0 0.00 0.00 0.00 58 1020.9
20210923011315 60 349 0.0 0.0 0.00 0.00 0.00 55 1020.7
20210923010314 60 349 0.0 0.0 0.00 0.00 0.00 55 1020.8
20210923005333 61 349 0.0 0.0 0.00 0.00 0.00 55 1020.7
20210923004315 62 349 0.0 0.0 0.00 0.00 0.00 52 1020.6
20210923003314 63 349 0.0 0.0 0.00 0.00 0.00 51 1020.6
20210923002332 63 349 0.0 0.0 0.00 0.00 0.00 49 1020.8
20210923001319 65 349 0.0 0.0 0.00 0.00 0.00 46 1020.9
20210923000322 66 349 0.0 0.0 0.00 0.00 0.00 44 1021.0
20210922235319 67 349 0.0 0.0 0.00 0.00 0.00 39 1021.0
20210922234317 68 349 0.0 0.0 0.00 0.00 0.00 37 1021.1
20210922233320 68 349 0.0 0.0 0.00 0.00 0.00 36 1021.2
20210922232318 69 349 0.0 1.0 0.00 0.00 0.00 33 1021.3
20210922231328 69 347 0.0 1.0 0.00 0.00 0.00 32 1021.5
20210922230325 70 338 0.0 2.0 0.00 0.00 0.00 33 1021.4
20210922225322 70 321 0.0 2.0 0.00 0.00 0.00 32 1021.5
20210922224324 70 223 0.0 2.0 0.00 0.00 0.00 34 1021.7
20210922223322 71 321 1.0 3.0 0.00 0.00 0.00 34 1021.8
20210922222320 71 233 0.0 3.0 0.00 0.00 0.00 33 1021.9
20210922221328 71 213 2.0 5.0 0.00 0.00 0.00 32 1022.0
20210922220332 71 206 0.0 3.0 0.00 0.00 0.00 33 1022.1
20210922215331 71 180 0.0 2.0 0.00 0.00 0.00 34 1022.3
20210922214330 71 321 1.0 3.0 0.00 0.00 0.00 34 1022.5
20210922213314 71 17 1.0 3.0 0.00 0.00 0.00 34 1022.5
20210922212331 71 321 1.0 3.0 0.00 0.00 0.00 33 1022.7
20210922211327 71 82 1.0 3.0 0.00 0.00 0.00 33 1022.9
20210922210327 72 359 0.0 3.0 0.00 0.00 0.00 35 1023.1
20210922205324 71 259 0.0 2.0 0.00 0.00 0.00 34 1023.3
20210922204326 71 335 0.0 3.0 0.00 0.00 0.00 32 1023.3
20210922203326 71 351 2.0 4.0 0.00 0.00 0.00 33 1023.5
20210922202324 71 331 0.0 2.0 0.00 0.00 0.00 35 1023.7
20210922200331 71 341 1.0 3.0 0.00 0.00 0.00 33 1023.8
20210922195329 71 335 0.0 2.0 0.00 0.00 0.00 36 1024.0
20210922194328 72 309 1.0 3.0 0.00 0.00 0.00 36 1024.2
20210922193331 71 303 0.0 4.0 0.00 0.00 0.00 41 1024.4
20210922192329 71 353 0.0 2.0 0.00 0.00 0.00 39 1024.5
20210922191327 71 335 1.0 3.0 0.00 0.00 0.00 40 1024.7
20210922190323 70 356 0.0 4.0 0.00 0.00 0.00 42 1024.8
20210922185321 70 116 0.0 4.0 0.00 0.00 0.00 43 1024.8
20210922184324 69 343 2.0 5.0 0.00 0.00 0.00 43 1025.0
20210922183324 69 31 0.0 2.0 0.00 0.00 0.00 48 1025.2
20210922182322 68 131 0.0 4.0 0.00 0.00 0.00 42 1025.5
20210922181324 68 326 1.0 4.0 0.00 0.00 0.00 43 1025.7
20210922180322 68 50 0.0 3.0 0.00 0.00 0.00 43 1025.8
20210922175320 68 316 0.0 3.0 0.00 0.00 0.00 46 1026.0
20210922174324 68 30 0.0 2.0 0.00 0.00 0.00 44 1026.1
20210922173324 68 227 1.0 2.0 0.00 0.00 0.00 45 1026.4
20210922172322 68 203 0.0 1.0 0.00 0.00 0.00 49 1026.6
20210922171325 67 162 1.0 3.0 0.00 0.00 0.00 45 1026.8
20210922170325 67 161 0.0 3.0 0.00 0.00 0.00 47 1027.0
20210922165323 67 158 0.0 3.0 0.00 0.00 0.00 47 1027.2
20210922164321 67 7 0.0 3.0 0.00 0.00 0.00 48 1027.3
20210922163324 67 110 0.0 2.0 0.00 0.00 0.00 51 1027.4
20210922162320 66 198 1.0 2.0 0.00 0.00 0.00 50 1027.6
20210922161319 66 231 0.0 1.0 0.00 0.00 0.00 52 1027.7
20210922160333 65 317 0.0 2.0 0.00 0.00 0.00 51 1027.8
20210922155316 64 51 0.0 2.0 0.00 0.00 0.00 51 1027.9
20210922154314 64 193 0.0 3.0 0.00 0.00 0.00 59 1027.9
20210922153333 64 231 0.0 1.0 0.00 0.00 0.00 56 1028.0
20210922152315 63 231 0.0 1.0 0.00 0.00 0.00 60 1027.9
20210922151333 61 226 0.0 1.0 0.00 0.00 0.00 66 1027.9
20210922150322 60 225 0.0 1.0 0.00 0.00 0.00 67 1027.9
20210922145319 60 207 0.0 2.0 0.00 0.00 0.00 71 1027.7
20210922144317 58 328 0.0 1.0 0.00 0.00 0.00 76 1027.8
20210922143320 55 328 0.0 1.0 0.00 0.00 0.00 76 1027.6
20210922142318 54 328 0.0 1.0 0.00 0.00 0.00 83 1027.5
20210922141317 52 9 0.0 1.0 0.00 0.00 0.00 86 1027.4
20210922140329 50 9 0.0 1.0 0.00 0.00 0.00 91 1027.4
20210922135331 48 9 0.0 0.0 0.00 0.00 0.00 92 1027.3
20210922134327 47 9 0.0 0.0 0.00 0.00 0.00 93 1027.4
20210922133326 47 9 0.0 0.0 0.00 0.00 0.00 94 1027.2
20210922132328 46 9 0.0 0.0 0.00 0.00 0.00 95 1027.2
20210922131327 45 9 0.0 0.0 0.00 0.00 0.00 95 1027.0
20210922130325 44 9 0.0 0.0 0.00 0.00 0.00 95 1027.1
20210922125323 44 9 0.0 0.0 0.00 0.00 0.00 95 1027.1
20210922124322 43 9 0.0 0.0 0.00 0.00 0.00 95 1027.1
20210922123325 43 9 0.0 0.0 0.00 0.00 0.00 94 1027.1
20210922122324 43 9 0.0 0.0 0.00 0.00 0.00 93 1027.0
20210922121323 43 9 0.0 0.0 0.00 0.00 0.00 93 1026.9
20210922115321 43 9 0.0 0.0 0.00 0.00 0.00 93 1027.0
20210922114319 44 9 0.0 0.0 0.00 0.00 0.00 93 1027.0
20210922113317 44 9 0.0 0.0 0.00 0.00 0.00 93 1027.0
20210922112318 44 9 0.0 0.0 0.00 0.00 0.00 94 1027.1
20210922111316 44 9 0.0 0.0 0.00 0.00 0.00 93 1027.1
20210922110317 44 9 0.0 0.0 0.00 0.00 0.00 93 1027.0
20210922105330 44 9 0.0 0.0 0.00 0.00 0.00 93 1027.0
20210922104328 44 9 0.0 0.0 0.00 0.00 0.00 93 1027.0
20210922103331 44 9 0.0 0.0 0.00 0.00 0.00 93 1026.9
20210922102329 45 9 0.0 0.0 0.00 0.00 0.00 93 1026.9
20210922101328 45 9 0.0 0.0 0.00 0.00 0.00 93 1026.8
20210922100331 45 9 0.0 0.0 0.00 0.00 0.00 92 1026.6
20210922095325 45 9 0.0 0.0 0.00 0.00 0.00 92 1026.7
20210922094324 45 8 0.0 0.0 0.00 0.00 0.00 92 1026.7
20210922093324 45 9 0.0 0.0 0.00 0.00 0.00 92 1026.7
20210922092325 46 9 0.0 0.0 0.00 0.00 0.00 91 1026.5
20210922091323 46 9 0.0 0.0 0.00 0.00 0.00 91 1026.5
20210922090323 46 9 0.0 0.0 0.00 0.00 0.00 91 1026.6
20210922085317 46 9 0.0 0.0 0.00 0.00 0.00 91 1026.6
20210922084319 47 9 0.0 0.0 0.00 0.00 0.00 90 1026.7
20210922083318 47 9 0.0 0.0 0.00 0.00 0.00 90 1026.7
20210922082317 47 9 0.0 0.0 0.00 0.00 0.00 89 1026.7
20210922081333 47 9 0.0 1.0 0.00 0.00 0.00 89 1026.6
20210922080316 47 9 0.0 1.0 0.00 0.00 0.00 88 1026.7
20210922075326 47 9 0.0 0.0 0.00 0.00 0.00 87 1026.6
20210922074324 48 9 0.0 0.0 0.00 0.00 0.00 87 1026.7
20210922073323 48 9 0.0 0.0 0.00 0.00 0.00 86 1026.8
20210922071329 48 9 0.0 0.0 0.00 0.00 0.00 86 1026.9
20210922070327 48 9 0.0 0.0 0.00 0.00 0.00 85 1026.7
20210922065314 49 9 0.0 0.0 0.00 0.00 0.00 84 1026.7
20210922064316 50 9 0.0 0.0 0.00 0.00 0.00 83 1026.7
20210922063315 50 9 0.0 0.0 0.00 0.00 0.00 82 1026.7
20210922062333 50 9 0.0 0.0 0.00 0.00 0.00 80 1026.9
20210922061331 51 9 0.0 0.0 0.00 0.00 0.00 78 1026.8
20210922060314 52 9 0.0 0.0 0.00 0.00 0.00 76 1026.7
20210922055333 53 9 0.0 1.0 0.00 0.00 0.00 75 1027.0
20210922054319 53 9 0.0 0.0 0.00 0.00 0.00 74 1027.0
20210922053318 53 9 0.0 0.0 0.00 0.00 0.00 73 1027.0
20210922052319 53 9 0.0 0.0 0.00 0.00 0.00 73 1027.0
20210922051316 54 9 0.0 0.0 0.00 0.00 0.00 71 1027.0
20210922050316 54 9 0.0 1.0 0.00 0.00 0.00 69 1026.9
20210922045318 54 9 0.0 0.0 0.00 0.00 0.00 68 1027.0
20210922044325 54 9 0.0 0.0 0.00 0.00 0.00 68 1027.0
20210922043328 55 9 0.0 0.0 0.00 0.00 0.00 66 1026.8
20210922042326 56 9 0.0 0.0 0.00 0.00 0.00 64 1026.8
20210922041323 57 9 0.0 0.0 0.00 0.00 0.00 63 1026.9
20210922040325 57 328 0.0 0.0 0.00 0.00 0.00 62 1026.8
20210922035322 58 328 0.0 0.0 0.00 0.00 0.00 60 1026.8